Probability
1 1 0 0 0 0 0 0 0 0 0 0 0 0 0 0 0 0 0 0 0 0 0 0 0 0 0 0 0 0 0 0 0 0 0 0 0 0 0 0 0 0 0 0 0 0 0 0 0
1 0 0 0 0 0 0 0 0 0 0 0 0 0 0 0 0 0 0 0 0 0 0 0 0 0 0 0 0 0 0 0 0 0 0 0 0 0 0 0 0 0 0 0 0 0 0 0 0
0 0 0 0 0 0 0 0 0 0 0 0 0 0 0 0 0 0 0 0 0 0 0 0 0 0 0 0 0 0 0 0 0 0 0 0 0 0 0 0 0 0 0 0 0 0 0 0 0
0 0 0 0 0 0 0 0 0 0 0 0 0 0 0 0 0 0 0 0 0 0 0 0 0 0 0 0 0 0 0 0 0 0 0 0 0 0 0 0 0 0 0 0 0 0 0 0 0
0 0 0 0 0 0 0 0 0 0 0 0 0 0 0 0 0 0 0 0 0 0 0 0 0 0 0 0 0 0 0 0 0 0 0 0 0 0 1 1 1 0 0 0 0 0 0 0 0
0 0 0 0 0 0 0 0 0 0 0 0 0 0 0 0 0 0 0 0 0 0 0 0 0 0 0 0 0 0 0 0 0 0 0 0 0 0 1 2 1 0 0 0 0 0 0 0 0
0 0 0 0 0 0 0 0 0 0 0 0 0 0 0 0 0 0 0 0 0 0 0 0 0 0 0 0 0 0 0 0 0 0 0 0 0 0 1 2 1 0 0 1 1 2 1 1 1
0 0 0 0 0 0 0 0 0 0 0 0 0 0 0 0 0 0 0 0 0 0 0 0 0 0 0 0 0 0 0 0 0 0 0 0 0 0 0 0 0 0 1 2 3 3 3 2 2
0 0 0 0 0 0 0 0 0 0 0 0 0 0 0 0 0 0 0 0 0 0 0 0 0 0 0 0 0 0 0 0 0 0 0 0 0 0 0 0 0 1 3 3 3 3 3 3 2
0 0 0 0 0 0 0 0 0 0 0 0 0 0 0 0 0 0 0 0 0 0 0 0 0 0 0 0 0 0 0 0 0 0 0 0 0 0 0 0 0 2 3 3 3 3 2 1 1
0 0 0 0 0 0 0 0 0 0 0 0 0 0 0 0 0 0 0 0 0 0 0 0 0 0 0 0 0 0 0 0 0 0 0 0 0 0 0 0 0 1 1 1 2 1 1 0 0
0 0 0 0 0 0 0 0 0 0 0 0 0 0 0 0 0 0 0 0 0 0 0 0 0 0 0 0 0 0 0 0 0 0 0 0 0 0 0 0 0 0 0 0 0 0 0 0 0
0 0 0 0 0 0 0 0 0 0 0 0 0 0 0 0 0 0 0 0 0 0 0 0 0 0 0 0 0 0 0 0 0 0 0 0 0 0 0 0 0 0 0 0 0 0 0 0 0
0 0 0 0 0 0 0 0 0 0 0 0 0 0 0 0 0 0 0 0 0 0 0 0 0 0 0 0 0 0 0 0 0 0 0 0 0 0 0 0 0 0 0 0 0 0 0 0 0
0 0 0 0 0 0 0 0 0 0 0 0 0 0 0 0 0 0 0 0 0 0 0 0 0 0 0 0 0 0 0 0 0 0 0 0 0 0 0 0 0 0 0 0 0 0 0 0 0
0 0 0 0 0 0 0 0 0 0 0 0 0 0 0 0 0 0 0 0 0 0 0 0 0 0 0 0 0 0 0 0 0 0 0 0 0 0 0 0 0 0 0 0 0 0 0 0 1
0 0 0 0 0 0 0 0 0 0 0 0 0 0 0 0 0 0 0 0 0 0 0 0 0 0 0 0 0 0 0 0 0 0 0 0 0 0 0 0 0 0 0 0 0 0 0 0 1
0 0 0 0 0 0 0 0 0 0 0 0 0 0 0 0 0 0 0 0 0 0 0 0 0 0 0 0 0 0 0 0 0 0 0 0 0 0 0 0 0 0 0 0 0 0 0 0 1
0 0 0 0 0 0 0 0 0 0 0 0 0 0 0 0 0 0 0 0 0 0 0 0 0 0 0 0 0 0 0 0 0 0 0 0 0 0 0 0 0 0 0 0 0 0 0 0 0
0 0 0 0 0 0 0 0 0 0 0 0 0 0 0 0 0 0 0 0 0 0 0 0 0 0 0 0 0 0 0 0 0 0 0 0 0 0 0 0 0 0 0 0 0 0 0 0 0
0 0 0 0 0 0 0 0 0 0 0 0 0 0 0 0 0 0 0 0 0 0 0 0 0 0 0 0 0 0 0 0 0 0 0 0 0 0 0 0 0 0 0 0 0 0 0 0 0
0 0 0 0 0 0 0 0 0 0 0 0 0 0 0 0 0 0 0 0 0 0 0 0 0 0 0 0 0 0 0 0 0 0 0 0 0 0 0 0 0 0 0 0 0 0 0 0 0
0 0 0 0 0 0 0 0 0 0 0 0 0 0 0 0 0 0 0 0 0 0 0 0 0 0 0 0 0 0 0 0 0 0 0 0 0 0 0 0 0 0 0 0 0 0 0 0 0
0 0 0 0 0 0 0 0 0 0 0 0 0 0 0 0 0 0 0 0 0 0 0 0 0 0 0 0 0 0 0 0 0 0 0 0 0 0 0 0 0 0 0 0 0 0 0 0 0
0 0 0 0 0 0 0 0 0 0 0 0 0 0 0 0 0 0 0 0 0 0 0 0 0 0 0 0 0 0 0 0 0 0 0 0 0 0 0 0 0 0 0 0 0 0 0 0 0
0 0 0 0 0 0 0 0 0 0 0 0 0 0 0 0 0 0 0 0 0 0 0 0 0 0 0 0 0 0 0 0 0 0 0 0 0 0 0 0 0 0 0 0 0 0 0 0 0
0 0 0 0 0 0 0 0 0 0 0 0 0 0 0 0 0 0 0 0 0 0 0 0 0 0 0 0 0 0 0 0 0 0 0 0 0 0 0 0 0 0 0 0 0 0 0 0 0
0 0 0 0 0 0 0 0 0 0 0 0 0 0 0 0 0 0 0 0 0 0 0 0 0 0 0 0 0 0 0 0 0 0 0 0 0 0 0 0 0 0 0 0 0 0 0 0 0
0 0 0 0 0 0 0 0 0 0 0 0 0 0 0 0 0 0 0 0 0 0 0 0 0 0 0 0 0 0 0 0 0 0 0 0 0 0 0 0 0 0 0 0 0 0 0 0 0
0 0 0 0 0 0 0 0 0 0 0 0 0 0 0 0 0 0 0 0 0 0 0 0 0 0 0 0 0 0 0 0 0 0 0 0 0 0 0 0 0 0 0 0 0 0 0 0 0
Wind_Speed
2 3 3 3 5 5 3 2 1 2 3 2 5 6 6 4 2 4 1 3 4 3 2 4 7 8 8 8 8 8 8 8 8 8 7 7 8 7 7 7 7 7 8 8 7 7 7 7 7
1 2 3 4 5 3 2 2 2 2 4 4 5 5 6 5 3 4 2 3 4 4 2 3 7 7 7 7 7 7 7 7 7 6 6 6 7 6 6 6 7 7 7 7 7 6 7 7 7
1 2 4 4 3 3 2 0 2 3 4 3 4 4 4 3 3 3 3 5 4 3 2 3 7 7 6 6 7 7 7 6 6 6 6 6 6 6 6 6 6 6 6 6 6 6 6 7 6
3 4 4 5 4 1 1 1 4 4 3 5 4 4 3 2 3 4 5 6 5 3 2 2 6 6 6 6 6 6 6 6 6 6 6 6 6 5 5 5 5 6 6 6 6 6 6 7 7
4 4 5 4 2 2 1 1 1 3 3 3 4 4 3 3 5 7 6 6 5 3 1 2 5 5 5 5 6 6 6 6 6 6 5 5 5 5 4 5 5 5 5 5 6 6 6 6 7
4 4 5 2 1 2 2 1 2 4 4 3 4 4 2 2 5 5 5 4 3 3 2 2 3 4 4 4 5 5 5 5 6 6 5 5 5 5 5 5 5 5 5 5 6 6 6 7 7
4 4 3 3 1 1 1 1 3 4 4 3 3 4 2 2 3 5 5 3 3 2 2 2 2 3 3 3 4 4 5 5 5 5 5 5 5 5 5 5 5 5 5 6 6 6 8 8 7
4 5 3 2 2 0 1 2 3 3 3 3 3 5 4 4 4 5 5 4 3 2 2 2 2 3 3 3 4 4 5 6 6 6 6 6 6 6 6 5 5 5 6 6 7 7 7 8 8
3 5 2 3 3 1 1 3 2 3 4 2 2 3 4 8 8 6 4 3 2 1 1 1 2 2 2 2 3 5 6 6 6 6 7 6 4 4 4 5 5 5 6 7 8 8 8 8 8
4 3 2 2 3 3 2 3 3 4 3 3 4 5 7 8 8 7 5 4 2 1 1 0 1 1 2 2 3 3 3 4 4 3 4 3 3 3 4 7 8 8 8 8 9 9 8 7 4
3 3 1 1 2 3 3 3 2 5 2 3 6 7 7 7 7 6 5 4 4 2 1 1 1 1 1 1 2 2 2 2 3 4 3 3 3 3 4 3 4 5 7 5 6 6 4 4 3
4 2 2 2 2 3 3 3 3 2 1 3 7 8 7 6 6 6 6 5 3 2 1 1 2 1 1 2 2 2 2 2 2 3 3 2 2 3 3 3 3 3 3 3 4 3 4 4 4
3 2 3 4 5 4 5 4 3 2 3 7 8 7 6 5 4 3 4 4 3 3 2 1 2 2 1 2 1 2 2 2 2 2 2 2 2 2 2 2 3 3 3 3 3 4 4 5 5
3 4 3 3 4 3 5 3 3 2 5 7 7 6 5 4 4 3 4 3 3 3 2 2 3 2 2 2 1 1 1 1 2 2 2 2 2 2 2 3 3 3 3 3 4 4 4 4 4
4 5 4 3 2 1 4 4 1 2 6 6 5 4 4 3 3 4 4 4 4 3 3 3 3 3 3 2 1 2 1 2 2 2 2 2 2 3 3 3 3 2 3 4 4 5 4 5 5
3 4 2 2 2 1 3 1 1 2 6 5 4 3 2 3 3 4 4 4 4 4 3 2 3 4 3 3 2 2 2 2 2 2 2 3 3 3 3 3 3 2 3 3 4 4 4 5 5
4 2 0 1 1 1 3 2 1 2 5 5 4 3 2 2 2 3 4 4 4 4 4 3 3 4 4 4 3 3 3 3 2 2 2 3 3 4 4 3 2 3 3 3 4 3 3 4 5
2 1 1 1 1 2 1 2 1 2 5 4 3 3 3 3 4 4 4 4 4 4 4 4 4 4 4 3 3 3 4 3 3 3 3 3 3 4 4 3 3 3 4 3 4 4 4 3 4
3 3 1 1 1 2 2 2 2 3 4 5 4 4 5 5 3 3 4 4 4 4 4 4 4 3 3 2 2 2 2 2 2 3 4 3 3 3 4 3 3 3 3 3 4 4 5 3 2
3 2 0 1 1 1 1 2 2 4 6 7 7 6 6 5 3 4 4 4 4 5 5 4 4 4 3 2 2 2 2 1 1 2 3 4 3 3 3 4 3 3 4 4 3 3 3 2 2
1 2 2 1 1 2 1 2 2 3 3 4 5 5 5 7 6 5 6 5 5 5 5 5 4 4 3 3 3 3 3 3 3 3 3 3 3 3 4 4 3 3 3 3 2 2 3 2 2
1 2 3 2 2 1 1 2 4 3 3 5 6 6 6 6 6 6 6 6 7 6 5 5 5 4 3 4 4 4 3 2 0 0 1 3 3 3 3 3 3 3 2 3 2 2 2 3 1
2 2 3 2 2 1 1 1 6 1 4 7 8 8 7 7 7 8 8 8 6 6 5 5 5 4 3 3 4 4 3 2 1 1 2 3 3 3 3 3 3 3 2 2 2 2 2 2 2
4 5 4 4 3 1 2 2 6 4 7 6 6 7 8 8 7 7 6 5 5 5 5 5 5 4 3 4 4 4 4 4 3 2 2 2 2 2 3 3 2 2 2 2 1 1 2 1 2
4 5 3 3 2 3 2 2 7 6 6 7 7 7 7 7 7 7 7 7 6 6 6 6 6 4 4 4 3 4 4 5 4 3 2 2 1 1 2 2 2 2 2 2 2 2 2 1 2
2 5 5 3 3 3 1 4 7 4 3 4 5 5 6 6 7 8 9 8 8 7 7 6 6 4 4 4 4 3 4 3 2 3 2 2 1 1 1 2 2 2 2 3 3 2 2 2 2
4 2 4 4 1 1 3 5 7 1 2 1 3 4 6 7 7 8 8 7 8 8 7 7 7 5 5 5 4 4 4 3 3 3 2 2 1 1 2 2 2 2 3 3 3 3 2 2 2
3 6 4 3 2 2 3 3 4 3 2 1 2 4 5 5 6 6 7 7 7 7 6 6 7 6 5 5 5 4 4 4 3 3 3 2 2 2 2 2 2 2 3 3 3 3 2 3 2
3 3 4 3 3 3 2 6 5 6 5 5 5 5 5 6 6 6 6 6 6 6 6 6 6 5 5 5 4 4 4 4 3 3 3 3 2 2 2 2 3 2 3 2 3 2 2 3 2
4 5 6 4 2 2 2 7 5 4 4 4 4 4 4 5 5 5 5 5 5 6 6 6 6 6 5 5 5 4 4 4 4 3 3 3 3 2 2 3 3 2 2 2 2 2 2 2 2
Wind_Direction
48 80 84 60 53 53 53 5 35 68 64 52 64 71 81 69 76 123 151 131 130 121 103 110 107 102 97 91 86 84 83 82 82 82 80 79 80 80 77 78 74 73 70 70 71 76 78 77 80
103 97 61 60 76 67 17 357 51 78 133 136 72 67 71 69 70 104 127 140 125 123 110 112 109 103 96 90 86 85 85 84 83 83 81 80 80 80 76 75 74 73 71 69 69 71 74 74 75
101 62 80 69 81 128 137 21 101 87 102 91 75 58 75 96 118 138 162 139 120 113 102 116 111 104 96 88 82 83 85 86 85 83 82 79 77 75 73 74 76 73 73 70 67 68 72 69 69
86 50 58 67 67 50 144 151 134 119 74 59 92 73 65 75 146 145 135 129 122 116 106 123 114 105 96 89 84 81 80 79 80 79 77 73 73 73 71 75 77 73 72 68 65 66 68 67 66
64 75 64 55 39 9 30 115 103 93 70 56 82 84 49 14 103 122 126 127 132 130 111 108 113 103 96 90 85 80 75 73 73 74 71 67 65 64 65 68 74 72 70 69 66 64 65 68 71
58 65 79 82 43 23 18 40 85 81 84 79 85 93 64 77 121 131 124 127 134 129 99 73 101 101 93 89 83 78 74 69 67 66 63 59 57 60 60 59 65 69 70 72 69 65 66 72 77
94 85 102 122 101 41 57 60 99 105 97 102 110 98 102 138 148 130 118 113 106 97 78 44 32 47 60 61 62 66 66 63 58 52 48 48 48 54 54 55 65 71 72 73 73 68 72 72 70
111 96 86 109 125 100 69 84 87 101 103 106 107 129 167 180 142 114 100 92 87 75 56 47 27 33 34 20 27 45 48 48 44 38 35 38 41 40 41 42 54 70 75 74 72 73 73 71 67
81 75 116 179 162 162 108 98 76 76 99 80 75 130 152 136 127 115 105 91 88 98 37 45 23 24 25 9 22 32 37 34 33 30 32 36 30 23 21 27 49 64 73 74 71 69 69 65 57
75 99 185 194 167 146 107 96 113 98 90 76 76 80 107 126 139 143 148 156 165 180 203 92 34 30 28 25 33 25 31 27 29 30 29 33 32 23 35 32 49 58 62 64 66 65 60 59 47
90 132 136 78 132 119 107 87 77 120 133 172 148 137 129 137 152 158 164 171 181 180 187 146 123 66 58 39 29 30 22 20 22 28 35 44 42 29 34 34 37 44 51 48 51 55 52 56 55
85 62 98 83 83 87 101 105 85 95 181 150 141 137 134 145 162 170 172 175 158 150 166 155 140 107 69 62 40 36 31 25 24 23 36 52 52 42 39 43 42 47 50 54 51 57 55 56 54
77 69 53 65 68 73 81 80 98 59 79 104 113 120 132 141 150 157 146 139 141 151 159 146 126 118 90 68 39 46 34 36 30 32 36 63 72 63 53 49 50 51 57 64 63 61 59 55 50
92 81 68 55 62 54 88 64 67 79 103 112 119 131 141 152 154 140 134 141 151 158 157 132 122 125 105 93 76 50 43 44 43 34 39 68 85 85 76 67 59 57 61 68 73 70 67 58 56
94 78 49 31 54 62 91 52 33 138 121 124 132 142 150 166 163 163 164 162 165 161 152 146 141 119 111 103 82 68 51 56 50 33 41 65 83 92 90 79 67 60 68 74 73 67 64 63 60
65 66 45 336 59 68 109 194 278 124 133 144 150 153 169 189 180 176 170 162 161 147 140 146 132 117 110 99 81 67 55 55 46 40 48 61 75 91 92 87 76 71 70 74 77 69 69 62 60
43 79 151 318 32 112 125 205 246 140 153 165 167 173 179 179 192 187 174 165 159 153 144 131 116 119 113 96 79 69 58 50 40 44 49 57 68 83 94 92 84 82 78 71 85 69 77 80 74
189 165 182 253 307 105 143 216 225 185 169 182 186 183 182 195 215 189 169 161 150 141 132 123 113 111 108 93 76 59 50 39 37 40 42 57 67 79 92 91 84 86 85 73 79 82 71 78 83
151 145 157 268 275 125 190 215 223 196 182 194 203 201 200 214 219 167 156 151 142 134 134 136 130 129 123 105 94 80 54 21 24 30 39 51 70 81 89 94 86 86 90 95 96 94 83 69 70
124 122 91 333 24 145 189 256 234 198 202 200 199 204 206 202 183 167 160 157 161 162 160 150 146 149 148 130 119 113 107 69 39 20 34 37 59 75 93 98 98 96 97 91 89 96 98 67 43
100 163 188 193 32 46 55 325 265 239 206 207 206 208 204 196 191 185 174 174 170 176 175 165 160 154 145 126 101 80 60 42 31 22 22 16 40 64 81 95 101 103 108 117 110 107 111 110 46
215 212 172 155 114 320 108 279 274 237 222 214 211 207 208 203 194 191 183 180 185 190 176 160 155 148 143 137 132 129 126 123 143 18 31 28 38 58 76 90 97 103 104 116 126 113 110 120 108
183 110 110 117 120 42 25 232 280 208 230 233 221 211 207 199 192 193 191 186 187 181 168 156 146 145 144 143 145 131 120 124 99 65 62 45 33 42 66 85 94 99 105 119 112 105 103 114 133
125 76 64 56 68 339 239 191 276 230 221 225 218 211 201 193 190 192 185 171 172 169 160 150 149 154 150 147 146 146 144 135 118 96 82 53 33 32 48 73 83 96 101 113 119 112 109 105 111
84 87 45 14 16 267 263 215 255 247 223 212 212 208 197 185 182 180 177 175 175 172 165 155 156 161 159 155 159 162 157 151 151 150 138 114 67 37 31 61 77 83 94 103 105 99 96 108 114
151 132 148 182 222 280 297 248 261 264 253 218 200 190 179 180 186 187 185 182 180 177 171 164 166 173 170 170 173 166 158 154 158 157 152 152 155 149 82 90 91 86 92 95 91 85 85 88 94
133 141 152 132 168 282 283 288 303 318 16 76 147 164 182 187 190 191 185 184 183 179 178 173 173 180 181 181 170 165 162 161 162 158 149 153 163 144 109 99 88 80 84 88 91 82 75 85 79
134 142 106 111 140 278 300 284 261 271 265 223 192 195 199 189 186 187 186 187 185 181 175 173 177 183 181 176 174 172 174 173 166 153 161 165 158 125 121 112 102 92 86 85 87 84 77 83 69
108 107 109 116 148 159 279 278 239 227 219 212 217 210 199 192 188 189 186 183 175 166 166 171 175 173 172 173 173 166 170 166 159 167 180 170 157 150 144 136 122 111 100 95 95 92 94 90 70
162 165 147 148 202 177 194 270 282 244 220 205 215 214 199 189 185 184 176 166 165 170 174 175 176 177 180 173 168 172 165 158 166 183 188 168 162 163 159 143 130 124 115 111 116 117 112 113 107